This demonstration page uses our WeatherBlox Daily Observations layout. Learn more.

Left ArrowRight Arrow

39.08367, -84.50855

Hourly Observations for April 25, 2018

Temp ( °F °C ) Dew Point ( °F °C ) Humidity (%) Winds ( mph kmh ) Pressure ( in mb ) Visibility ( mi km ) Precip ( " mm )
12:53 am 00:53 Cloudy 55 12.8 54 12.2 96 96 N 5 7 29.90 1013 8 13 N/A
1:53 am 01:53 Cloudy 55 12.8 54 12.2 96 96 VRB 5 7 29.91 1013 8 13 N/A
2:53 am 02:53 Cloudy 54 12.2 53 11.7 97 97 NW 6 9 29.90 1012 9 14 N/A
3:05 am 03:05 Cloudy 54 12.2 53 11.7 97 97 NW 6 9 29.94 1014 8 13 N/A
3:53 am 03:53 Cloudy 54 12.2 53 11.7 97 97 NNW 6 9 29.88 1012 8 13 N/A
4:53 am 04:53 Cloudy 54 12.2 52 11.1 93 93 N 3 6 29.88 1012 9 14 N/A
5:53 am 05:53 Cloudy 54 12.2 52 11.1 93 93 NNW 8 13 29.88 1012 9 14 N/A
6:53 am 06:53 Cloudy 54 12.2 52 11.1 93 93 NNW 8 13 29.90 1013 9 14 N/A
7:23 am 07:23 Cloudy 54 12.2 51 10.6 90 90 N 12 19 29.94 1014 10 16 N/A
7:38 am 07:38 Cloudy 54 12.2 51 10.6 90 90 N 12 19 29.94 1014 10 16 N/A
7:53 am 07:53 Cloudy 54 12.2 51 10.6 90 90 NNW 9 15 29.92 1013 10 16 N/A
8:53 am 08:53 Cloudy 55 12.8 51 10.6 87 87 NW 6 9 29.94 1014 9 14 N/A
9:53 am 09:53 Cloudy 55 12.8 51 10.6 87 87 NNW 8 13 29.96 1014 10 16 N/A
10:11 am 10:11 Cloudy with Light Rain 56 13.3 52 11.1 87 87 N 13 20 29.97 1015 4 6 N/A
10:48 am 10:48 Cloudy with Light Rain 55 13 54 12 94 94 NW 8 13 29.97 1015 4 6 N/A
10:53 am 10:53 Cloudy with Light Rain 55 12.8 53 11.7 93 93 NNW 8 13 29.97 1015 3 5 N/A
11:28 am 11:28 Cloudy with Mist and Fog 57 13.9 53 11.7 87 87 NNW 9 15 29.97 1015 6 10 N/A
11:53 am 11:53 Cloudy 57 13.9 53 11.7 87 87 NNW 12 19 29.96 1015 8 13 N/A
12:53 pm 12:53 Cloudy 60 15.6 53 11.7 78 78 N 7 11 29.95 1014 8 13 N/A
1:53 pm 13:53 Cloudy 60 15.6 52 11.1 75 75 NNW 8 13 29.94 1014 10 16 N/A
2:53 pm 14:53 Mostly Cloudy 63 17.2 51 10.6 65 65 NNE 9 15 29.94 1014 10 16 N/A
3:53 pm 15:53 Mostly Cloudy 65 18.3 51 10.6 61 61 N 9 15 29.93 1014 10 16 N/A
4:53 pm 16:53 Mostly Cloudy 65 18.3 48 8.9 54 54 WNW 7 11 29.92 1013 10 16 N/A
5:53 pm 17:53 Mostly Cloudy 64 17.8 47 8.3 54 54 N 13 20 29.92 1013 10 16 N/A
6:53 pm 18:53 Partly Cloudy 65 18.3 48 8.9 54 54 NNW 7 11 29.91 1013 10 16 N/A
7:53 pm 19:53 Mostly Sunny 62 16.7 47 8.3 58 58 N 5 7 29.91 1013 10 16 N/A
8:53 pm 20:53 Clear 56 13.3 48 8.9 75 75 N N/A 29.92 1013 10 16 N/A
9:53 pm 21:53 Clear 50 10 49 9.4 96 96 N N/A 29.93 1014 10 16 N/A
10:53 pm 22:53 Clear 49 9.4 48 8.9 97 97 SSW 3 6 29.94 1014 10 16 N/A
11:53 pm 23:53 Clear 48 8.9 47 8.3 96 96 N N/A 29.93 1014 10 16 N/A

Powered by AerisWeather